Weather History for Dillon, MT

Change the Weather History Date:

Wednesday, July 10, 2013

  Actual Average Record
Temperature  
Mean Temperature 70 °F 65 °F  
Max Temperature 93 °F 82 °F 95 °F (1939)
Min Temperature 46 °F 49 °F 39 °F (1946)
Degree Days  
Heating Degree Days 0    
Month to date heating degree days 0  
Since 1 June heating degree days 188  
Since 1 July heating degree days 0  
Cooling Degree Days 5    
Month to date cooling degree days 59  
Year to date cooling degree days 84  
Since 1 June cooling degree days 81  
Growing Degree Days 22 (Base 50)    
Moisture  
Dew Point 39 °F    
Average Humidity 36    
Maximum Humidity 61    
Minimum Humidity 10    
Precipitation  
Precipitation 0.00 in 0.04 in 0.71 in (1970)
Month to date precipitation 0.26 0.39  
Year to date precipitation 4.84 6.43  
Snow  
Snow 0.00 in - - ()
Snow Depth 0.00 in    
Sea Level Pressure  
Sea Level Pressure 29.95 in    
Wind  
Wind Speed 6 mph (South)    
Max Wind Speed 20 mph    
Max Gust Speed 26 mph    
Visibility 10 miles    
Events      
T = Trace of Precipitation, MM = Missing Value Source: NWS Daily Summary

Daily Weather History Graph

Daily Weather History Graph

Search for Another Location

Airport:

Trip Planner

Search our weather history database for the weather conditions in past years. The results will help you decide how hot, cold, wet, or windy it might be!

Date:

Astronomy

Jul. 10, 2013 Rise Set
Actual Time 5:52 AM MDT 9:18 PM MDT
Civil Twilight 5:16 AM MDT 9:54 PM MDT
Nautical Twilight 4:27 AM MDT 10:42 PM MDT
Astronomical Twilight 3:26 AM MDT 11:43 PM MDT
Moon 8:26 AM MDT (7/10) 10:19 PM MDT (7/10)
Length of Visible Light 16h 38m
Length of Day
15h 25m
Waxing Crescent, 5% of the Moon is Illuminated
Jul 10
Waxing Crescent
Jul 15
First Quarter
Jul 22
Full
Jul 29
Last Quarter
Aug 6
New

Hourly Weather History & Observations

Time (MDT) Temp. Dew Point Humidity Pressure Visibility Wind Dir Wind Speed Gust Speed Precip Events Conditions
12:53 AM 57.0 °F 37.9 °F 49% 30.05 in 10.0 mi SW 3.5 mph - N/A   Clear
1:53 AM 63.0 °F 33.1 °F 33% 30.02 in 10.0 mi South 4.6 mph - N/A   Clear
2:53 AM 60.1 °F 34.0 °F 38% 30.02 in 10.0 mi South 5.8 mph - N/A   Clear
3:53 AM 55.9 °F 33.1 °F 42% 30.04 in 10.0 mi SSW 8.1 mph - N/A   Clear
4:53 AM 55.9 °F 33.1 °F 42% 30.03 in 10.0 mi South 6.9 mph - N/A   Clear
5:53 AM 52.0 °F 36.0 °F 54% 30.05 in 10.0 mi SSW 12.7 mph - N/A   Clear
6:53 AM 54.0 °F 37.0 °F 53% 30.06 in 10.0 mi South 10.4 mph - N/A   Clear
7:53 AM 55.0 °F 43.0 °F 64% 30.05 in 10.0 mi WSW 6.9 mph - N/A   Clear
8:53 AM 64.0 °F 42.1 °F 45% 30.05 in 9.0 mi SSW 8.1 mph - N/A   Clear
9:53 AM 71.1 °F 39.0 °F 31% 30.04 in 10.0 mi South 3.5 mph - N/A   Clear
10:53 AM 75.0 °F 43.0 °F 32% 30.01 in 10.0 mi Calm Calm - N/A   Clear
11:53 AM 78.1 °F 44.1 °F 30% 29.99 in 10.0 mi NNW 3.5 mph - N/A   Clear
12:14 PM 80.6 °F 42.8 °F 26% 30.15 in 7.0 mi NNW 3.5 mph - N/A   Partly Cloudy
12:53 PM 84.0 °F 42.1 °F 23% 29.96 in 10.0 mi Calm Calm - N/A   Clear
1:53 PM 90.0 °F 39.0 °F 17% 29.90 in 10.0 mi NNE 6.9 mph - N/A   Clear
2:53 PM 89.1 °F 37.0 °F 16% 29.88 in 10.0 mi NNE 3.5 mph - N/A   Clear
3:53 PM 93.0 °F 28.0 °F 10% 29.83 in 10.0 mi SSE 8.1 mph - N/A   Clear
4:39 PM 80.6 °F 44.6 °F 28% 30.03 in 10.0 mi WSW 13.8 mph - N/A   Clear
5:53 PM 87.1 °F 37.0 °F 17% 29.84 in 10.0 mi South 8.1 mph - N/A   Partly Cloudy
6:53 PM 84.0 °F 46.9 °F 27% 29.81 in 10.0 mi North 3.5 mph - N/A   Clear
7:53 PM 84.0 °F 46.9 °F 27% 29.79 in 10.0 mi NNE 5.8 mph - N/A   Clear
8:53 PM 78.1 °F 41.0 °F 27% 29.77 in 10.0 mi ENE 5.8 mph - N/A   Clear
9:53 PM 77.0 °F 39.9 °F 26% 29.77 in 10.0 mi SE 4.6 mph - N/A   Clear
10:53 PM 70.0 °F 42.1 °F 36% 29.76 in 10.0 mi SSE 5.8 mph - N/A   Clear
11:53 PM 72.0 °F 39.9 °F 31% 29.73 in 10.0 mi South 6.9 mph - N/A   Clear